Flag for Jordan Weather past 2 weeks in Zarqa, Jordan

Now
95 °F

Haze.


Feels Like: 92 °F
Forecast: 68 / 100 °F
Wind: 14 mph from Northwest

Location: Amman Airport

Current Time: Aug 23, 2014 at 4:40:25 PM

Latest Report: Aug 23, 2014 at 4:00 PM


Visibility: 3 mi

Pressure: 29.83 "Hg

Humidity: 22%

Dew point: 50 °F

Location of ZarqaLocation

Historic Weather in Zarqa — Graph

°F

Zarqa temperature yesterday

Maximum temperature yesterday: 90 °F (at 3:00 PM)
Minimum temperature yesterday: 66 °F (at 5:00 AM)
Average temperature yesterday: 79 °F

Past Weeks' High & Low Weather Summary

 TemperatureHumidityPressure
High99 °F (Aug 11, 8:00 PM)88% (Aug 23, 6:00 AM)30.07 "Hg (Aug 23, 6:00 AM)
Low64 °F (Aug 10, 5:00 AM)10% (Aug 21, 1:00 PM)29.74 "Hg (Aug 17, 4:00 PM)
Average80 °F43%29.89 "Hg
* Reported Aug 8 3:00 PM — Aug 23 3:00 PM, Zarqa, Weather by CustomWeather, © 2014

Note: Actual official high and low records may vary slightly from our data, if they occured in-between our weather recording intervals... More about our weather records

Advertising

Zarqa weather history for previous 24 hours

 ConditionsComfort  
Time TempWeatherWind HumidityBarometerVisibility
3:00 PM
Aug 23
95 °FHaze.9 mph20%29.83 "Hg3 mi
2:00 PM95 °FHaze.10 mph20%29.83 "Hg3 mi
1:00 PM93 °FHaze.7 mph24%29.86 "Hg3 mi
12:00 PM91 °FHaze.5 mph28%29.86 "Hg3 mi
11:00 AM88 °FHaze.No wind33%29.89 "Hg2 mi
10:00 AM84 °FHaze.No wind43%29.89 "Hg2 mi
9:00 AM77 °FFog.No wind65%29.89 "Hg2 mi
8:00 AM75 °FFog.No wind83%29.86 "Hg2 mi
7:00 AM70 °FFog.No wind88%29.86 "Hg2 mi
6:00 AM70 °FFog.No wind88%29.86 "Hg2 mi
5:00 AM70 °FHaze.No wind78%29.86 "Hg3 mi
4:00 AM72 °FClear.No wind69%29.89 "Hg4 mi
3:00 AM72 °FClear.No wind61%29.89 "Hg4 mi
2:00 AM73 °FClear.No wind57%29.89 "Hg4 mi
1:00 AM75 °FClear.No wind61%29.89 "Hg4 mi
12:00 AM77 °FClear.7 mph57%29.89 "Hg4 mi
11:00 PM
Aug 22
77 °FClear.7 mph54%29.89 "Hg4 mi
10:00 PM77 °FClear.7 mph57%29.89 "Hg4 mi
9:00 PM77 °FClear.5 mph65%29.89 "Hg4 mi
8:00 PM79 °FClear.14 mph61%29.89 "Hg4 mi
7:00 PM82 °FClear.10 mph51%29.86 "Hg4 mi
6:00 PM86 °FClear.15 mph46%29.86 "Hg4 mi
5:00 PM90 °FHaze.13 mph29%29.86 "Hg3 mi
4:00 PM90 °FHaze.15 mph26%29.86 "Hg3 mi
Weather by CustomWeather, © 2014

See weather overviewHow to use our weather pages